Flag for Mexico Weather past 2 weeks in Merida, Yucatán, Mexico

Now
73 °F

Passing clouds.


Feels Like: 75 °F
Forecast: 70 / 89 °F
Wind: 5 mph from Northeast

Location: Aerop. Internacional Merida - Yuc


UV Index: 10 (Very high)

Visibility: 7 mi


Pressure: 30.04 "Hg

Humidity: 74%

Dew point: 64 °F

Location of MeridaLocation

Historic Weather in Merida

°F

Merida temperature yesterday

Maximum temperature yesterday: 88 °F (at 12:49 PM)
Minimum temperature yesterday: 73 °F (at 3:47 AM)
Average temperature yesterday: 79 °F

Past Weeks' High & Low Weather Summary

 TemperatureHumidityPressure
High104 °F (Apr 7, 3:50 PM)100% (Apr 8, 5:50 AM)30.23 "Hg (Apr 8, 5:50 AM)
Low55 °F (Apr 10, 6:52 AM)18% (Apr 5, 2:52 PM)29.63 "Hg (Apr 7, 4:50 PM)
Average81 °F58%29.93 "Hg
* Reported Apr 5 1:47 AM — Apr 20 2:45 AM, Merida, Weather by CustomWeather, © 2014

Note: Actual official high and low records may vary slightly from our data, if they occured in-between our weather recording intervals... More about our weather records

Advertising

Historic Weather Conditions — Data for Previous 24 hours

 ConditionsComfort  
Time TempWeatherWind HumidityBarometerVisibility
2:45 AM
Apr 20
73 °FPassing clouds.5 mph74%30.04 "Hg7 mi
1:45 AM73 °FPassing clouds.6 mph74%30.05 "Hg7 mi
12:47 AM73 °FPassing clouds.7 mph74%30.05 "Hg7 mi
11:44 PM
Apr 19
73 °FClear.6 mph74%30.05 "Hg7 mi
10:48 PM73 °FClear.8 mph74%30.04 "Hg7 mi
9:46 PM75 °FClear.9 mph69%30.07 "Hg7 mi
7:51 PM75 °FSunny.14 mph65%30.01 "Hg7 mi
6:50 PM79 °FPartly sunny.17 mph58%30.02 "Hg7 mi
5:48 PM82 °FScattered clouds.14 mph51%29.97 "Hg7 mi
3:48 PM86 °FBroken clouds.17 mph43%29.96 "Hg7 mi
2:45 PM88 °FBroken clouds.5 mph43%29.98 "Hg7 mi
1:48 PM88 °FPartly sunny.12 mph43%30.00 "Hg7 mi
12:49 PM88 °FPartly sunny.12 mph43%30.03 "Hg7 mi
11:42 AM84 °FPartly sunny.10 mph48%30.03 "Hg7 mi
9:44 AM81 °FScattered clouds.8 mph58%30.03 "Hg7 mi
8:47 AM79 °FScattered clouds.8 mph65%30.05 "Hg7 mi
7:47 AM75 °FScattered clouds.10 mph74%30.04 "Hg7 mi
6:51 AM73 °FPassing clouds.3 mph78%30.02 "Hg7 mi
5:45 AM73 °FPassing clouds.7 mph78%30.01 "Hg7 mi
3:47 AM73 °FPassing clouds.No wind78%30.01 "Hg7 mi
Weather by CustomWeather, © 2014

See weather overview